Location: Navajo
(48.7922°N, 105.0603°W)
Time: 01:14:47
(UTC+00:00)

LO-87 - Visible Passes

Search period start: 26 June 2022 00:00
Search period end: 06 July 2022 00:00
Orbit: 454 x 468 km, 97.4° (Epoch: 25 June)

Date Brightness Start Highest point End Pass type
(mag) Time Alt. Az. Time Alt. Az. Time Alt. Az.
26 Jun ? 05:45:01 20° ESE 05:46:26 27° ENE 05:49:26 10° N visible
26 Jun ? 07:18:53 21° WSW 07:19:26 22° W 07:22:11 10° NW visible
27 Jun ? 05:13:25 10° E 05:15:11 14° ENE 05:16:56 10° NNE visible
27 Jun ? 06:47:03 42° SW 06:47:45 51° W 06:51:09 10° NNW visible
28 Jun ? 06:15:12 40° SE 06:16:12 62° ENE 06:19:38 10° N visible
28 Jun ? 07:49:04 10° W 07:49:35 10° W 07:50:06 10° W visible
29 Jun ? 05:43:19 20° ESE 05:44:46 26° ENE 05:47:43 10° N visible
29 Jun ? 07:17:12 22° WSW 07:17:43 23° W 07:20:33 10° NW visible
30 Jun ? 05:11:48 10° E 05:13:26 13° ENE 05:15:05 10° NNE visible
30 Jun ? 06:45:18 45° SW 06:45:59 54° W 06:49:25 10° NNW visible
01 Jul ? 06:13:24 40° SE 06:14:23 58° ENE 06:17:48 10° N visible
01 Jul ? 07:47:16 11° W 07:47:44 11° W 07:48:42 10° WNW visible
02 Jul ? 05:41:28 19° ESE 05:42:54 25° ENE 05:45:48 10° N visible
02 Jul ? 07:15:20 23° WSW 07:15:50 24° W 07:18:43 10° NW visible
03 Jul ? 05:10:01 10° E 05:11:32 12° ENE 05:13:02 10° NE visible
03 Jul ? 06:43:23 47° SSW 06:44:02 58° W 06:47:29 10° NNW visible
04 Jul ? 06:11:25 39° SE 06:12:23 55° ENE 06:15:48 10° N visible
04 Jul ? 07:45:17 11° W 07:45:42 12° W 07:46:58 10° WNW visible
05 Jul ? 05:39:26 18° ESE 05:40:50 24° ENE 05:43:42 10° NNE visible
05 Jul ? 07:13:18 25° WSW 07:13:44 26° W 07:16:42 10° NW visible
